METAR UND TAF INFORMATION
GCFV 231400Z 15012KT 9999 FEW025 BKN037 25/21 Q1018

 FLUGHAFENKARTE

 RUNWAY INFORMATION
Runway 01 Runway length 7874 ft Runway width 148 ft
Runway elevation 37 ft Runway displaced threshold 0 ft Runway heading 2
Runway 19 Runway length 7874 ft Runway width 148 ft
Runway elevation 75 ft Runway displaced threshold 0 ft Runway heading 182

 AIRPORT FREQUENCIES
Type APP Name CANARIAS A Frequency 129.3 MHZ
Type ATIS Name ATIS Frequency 118.65 MHZ
Type GND Name GND Frequency 121.7 MHZ
Type TWR Name TWR Frequency 118.5 MHZ

 AIRPORT NEAR NAVIGATION AIDS
Type VOR-DME Name Fuerteventura Frequency 114100 KHZ



Aktuelle Version 4.2.2: Changelog

Impressum | Datenschutzerklärung

Virtual Airlines Manager